Theta_e
301 296 295 297 296 295 294 292 291 293 295 293 294 294 297 300 298 297 297 296 297 297 299 299 302 304 302 302 301 302 304 304 304 303 303 305 307 311 315 321 328 328 328 326
296 292 296 297 296 294 293 291 291 293 294 292 293 293 297 299 297 298 297 296 296 297 296 297 300 303 303 301 300 302 302 302 303 303 304 306 308 312 320 325 327 327 328 326
293 294 296 294 292 291 292 291 288 289 293 295 292 294 293 296 298 298 298 298 298 296 294 295 297 300 302 301 299 299 301 301 302 302 303 307 310 312 314 320 324 327 327 326
294 296 293 292 291 292 288 292 291 290 289 288 292 287 286 294 294 296 297 297 297 295 295 295 296 297 299 300 301 300 301 301 301 302 304 307 308 311 318 323 325 325 326 324
291 292 291 290 291 293 289 292 291 290 289 289 290 286 296 291 290 293 297 296 295 294 294 295 296 296 299 301 301 300 300 300 300 302 308 310 310 314 320 323 322 323 325 325
293 295 294 293 293 293 294 291 290 291 290 284 287 286 293 291 292 294 296 296 293 293 294 295 296 297 298 300 301 300 298 299 299 301 304 309 311 312 313 313 313 314 316 316
291 292 294 294 291 293 292 289 287 286 284 284 286 284 290 294 294 295 295 295 293 293 293 294 294 295 296 298 298 299 297 297 298 299 300 302 307 309 308 309 310 310 309 310
288 286 291 294 292 290 290 289 285 280 281 283 284 282 291 295 296 297 296 296 293 293 293 293 294 294 295 297 298 298 296 296 297 297 298 299 301 305 306 307 307 307 307 308
289 287 292 292 293 292 289 285 289 283 281 281 287 289 293 293 293 294 295 295 293 292 292 292 293 294 295 297 297 297 296 295 296 296 297 297 298 299 301 303 304 304 305 305
292 286 290 290 293 292 290 291 284 285 280 279 285 284 287 289 291 293 294 294 293 293 292 292 293 293 294 296 298 298 298 295 295 295 295 296 296 297 298 299 298 299 300 301
292 289 286 289 288 289 286 286 287 286 284 280 279 286 293 294 294 294 295 296 294 292 292 292 292 293 294 296 297 297 297 297 295 295 295 294 295 295 295 295 296 296 297 297
293 290 285 287 289 290 291 289 289 284 281 284 282 283 292 295 295 296 296 296 294 293 293 292 292 293 293 294 296 297 297 296 297 295 295 294 294 294 294 294 295 296 295 296
291 288 285 285 285 287 286 288 289 287 285 282 281 287 291 293 293 295 297 296 293 292 292 292 292 292 292 293 295 296 297 296 297 297 296 295 294 294 293 293 294 294 294 294
293 288 287 287 285 287 283 286 288 287 283 284 284 288 289 291 292 294 295 297 293 292 292 292 292 292 292 293 294 295 295 296 296 296 295 295 294 293 293 293 293 293 293 293
290 285 284 286 286 286 286 286 287 285 287 283 289 288 291 294 293 295 296 296 293 291 291 291 291 292 292 292 293 294 295 295 296 295 294 294 294 294 293 293 293 293 293 293
290 284 283 282 285 284 282 285 287 287 288 288 288 287 295 296 296 295 296 295 292 291 291 291 291 291 291 291 292 293 293 294 295 294 293 293 293 293 293 292 292 292 291 292
287 285 283 283 279 279 277 280 283 286 289 289 285 290 295 293 294 295 295 295 292 292 292 292 291 291 291 292 292 292 293 293 293 293 293 292 292 291 291 291 290 290 290 290
285 285 285 281 280 277 288 286 288 287 289 291 291 292 295 296 296 297 297 296 294 293 293 293 292 292 292 293 293 293 292 292 292 291 291 292 291 290 290 290 289 289 289 289
289 286 282 280 280 284 287 284 283 284 287 291 291 292 294 295 293 293 297 298 297 295 295 294 294 293 293 293 293 292 291 292 291 290 290 290 290 289 289 288 287 288 288 288
286 288 284 276 278 279 288 284 285 288 283 295 293 292 293 293 286 292 297 297 297 297 296 295 294 293 292 292 292 291 290 290 290 290 289 290 289 289 288 288 287 287 287 285
279 281 279 280 280 285 291 284 285 284 289 289 294 294 294 290 294 293 295 297 298 297 295 295 293 292 292 292 291 290 290 289 290 289 288 287 287 287 288 287 286 286 285 285
280 280 280 281 279 277 285 282 283 291 289 289 290 293 293 294 295 293 292 294 295 294 294 294 292 291 291 291 290 289 289 290 289 287 286 284 284 284 286 284 285 284 285 284
281 286 283 284 285 290 286 289 288 288 289 288 289 291 293 292 292 292 291 292 293 293 291 292 291 290 290 289 289 288 289 288 286 283 281 280 281 283 284 284 284 285 285 285
284 289 283 283 288 288 288 289 289 289 288 289 289 290 291 291 292 290 290 289 289 290 289 290 290 288 288 288 287 289 288 286 283 282 280 280 280 282 282 285 285 285 285 285
286 285 284 283 286 287 289 289 289 289 288 287 287 288 289 290 289 289 289 288 288 288 288 289 288 288 287 287 287 287 286 284 283 282 281 281 282 282 283 284 285 285 286 286
286 285 284 284 288 289 291 291 291 289 289 289 288 286 287 289 289 288 289 289 288 287 287 287 287 287 287 287 286 285 285 284 284 282 281 282 283 283 283 283 282 284 285 285
Wind_Speed
2 6 6 6 1 2 2 3 6 3 1 5 8 11 10 7 9 9 6 5 7 10 12 13 12 12 12 14 13 15 17 18 12 8 8 8 8 8 11 11 13 13 13 14
4 8 4 4 3 1 1 2 5 4 1 5 10 15 14 12 12 8 7 7 9 11 12 13 13 13 14 14 16 16 16 17 12 9 8 8 7 8 9 9 11 12 14 12
7 5 7 4 3 4 3 3 3 5 8 8 12 9 4 6 10 10 10 7 7 9 11 12 14 13 14 16 13 15 16 16 13 14 10 8 8 8 8 7 9 11 12 11
5 6 6 4 6 5 6 2 3 4 7 4 4 7 4 8 11 12 10 6 5 7 9 10 13 14 14 15 13 14 15 15 13 14 10 10 7 8 8 7 8 8 11 11
4 9 7 6 2 5 3 1 3 3 7 7 6 3 2 5 9 13 9 5 3 5 8 10 12 13 12 13 14 14 15 14 16 15 13 3 7 7 4 4 8 7 9 9
2 1 4 2 3 1 5 2 4 4 4 4 5 3 5 6 5 8 9 6 3 2 6 7 10 11 12 13 13 14 16 16 17 17 18 12 6 5 4 8 7 5 6 6
5 7 4 4 5 3 5 4 2 3 2 2 3 5 11 6 7 7 9 6 3 1 5 8 10 12 13 14 14 14 17 17 17 18 19 17 13 12 12 11 8 10 9 9
7 6 11 10 4 2 10 3 3 4 3 4 4 8 3 1 6 7 5 5 3 2 2 5 8 10 11 13 13 14 16 17 18 19 18 17 17 10 10 12 11 10 11 10
5 4 3 1 1 3 6 6 3 2 2 3 5 7 12 7 8 9 9 8 6 4 1 3 6 8 10 10 12 13 14 15 18 18 15 17 15 15 14 13 16 12 14 14
1 2 3 4 3 2 4 3 3 2 2 5 3 7 9 9 14 12 12 11 8 5 4 1 4 7 8 9 9 11 12 11 13 15 15 14 16 16 16 15 19 17 15 15
3 2 5 3 10 9 6 5 4 4 3 3 5 4 3 6 10 13 13 11 9 8 6 4 3 4 6 7 8 10 11 12 12 11 13 15 14 16 15 14 14 14 14 14
4 2 5 5 3 3 5 9 11 5 6 4 1 9 2 2 5 7 10 11 10 8 7 5 4 3 4 6 7 8 9 10 10 9 10 11 13 13 14 14 14 14 13 14
6 3 2 3 3 3 7 12 11 3 2 8 5 5 0 3 5 6 10 12 11 10 9 7 5 4 3 4 5 7 8 8 8 9 9 11 11 12 12 13 14 15 14 13
2 3 6 3 3 3 6 11 18 13 5 4 14 10 5 8 10 10 12 13 13 12 11 9 7 6 5 2 3 5 6 7 7 8 10 11 12 10 9 10 11 12 11 12
3 4 3 9 6 4 6 7 17 23 19 12 2 18 15 12 14 15 14 13 14 13 13 11 9 8 8 5 4 4 6 5 7 8 9 9 10 10 9 9 9 9 8 8
6 3 1 5 4 8 10 15 17 20 22 24 21 32 19 16 10 14 15 16 16 16 14 13 11 10 9 8 6 5 7 6 7 8 8 8 8 8 8 7 7 6 7 8
6 6 2 5 3 5 9 21 23 21 19 24 20 30 9 6 12 18 15 17 17 16 16 16 15 13 10 10 9 8 8 8 8 8 7 7 7 7 7 6 6 7 7 7
5 4 3 3 3 11 0 1 10 22 22 24 22 21 12 11 10 9 12 17 18 17 16 15 13 13 12 11 10 8 8 8 8 8 8 7 6 6 5 6 6 6 5 6
9 7 4 6 8 13 17 7 10 12 14 25 28 26 21 9 3 13 13 17 19 18 16 15 15 14 13 13 11 11 8 7 8 8 7 7 6 6 5 5 5 4 5 5
8 8 8 4 7 10 3 3 1 5 14 16 25 26 14 13 10 8 18 18 17 16 15 15 15 14 14 13 12 11 9 8 8 7 7 6 6 7 7 6 5 2 4 5
6 5 14 11 10 10 6 9 5 5 5 2 6 11 14 15 7 3 1 13 13 14 16 16 17 16 16 14 14 12 11 10 7 6 5 5 5 5 6 6 4 5 4 5
14 13 9 9 10 22 7 6 11 2 2 1 2 8 14 14 6 4 5 8 12 14 15 17 16 14 14 15 14 12 12 8 9 8 7 5 5 3 4 6 4 5 5 5
10 10 9 17 12 1 14 4 12 3 2 1 2 4 7 9 9 7 6 9 11 12 12 13 14 14 13 14 15 14 11 11 10 8 7 5 5 4 5 7 6 5 3 3
10 10 6 3 12 16 10 13 6 4 3 2 3 4 7 9 9 8 6 6 6 8 12 12 12 14 14 14 13 11 12 12 11 9 8 6 7 6 4 4 5 5 5 5
8 14 9 12 10 7 11 13 6 8 7 7 4 4 8 8 6 7 7 7 8 9 9 12 13 14 15 14 13 10 12 13 12 9 8 7 5 6 6 4 5 5 3 4
10 10 15 13 10 9 8 5 14 16 16 17 13 9 8 8 8 7 7 7 9 10 9 10 10 10 12 13 13 11 12 14 13 10 8 8 7 7 6 5 3 2 2 6
Wind_Direction
156 239 218 227 316 328 304 269 278 270 74 288 255 274 273 248 242 254 272 304 326 337 338 336 334 353 355 345 334 326 317 316 312 300 283 271 258 249 234 237 206 187 180 182
198 239 111 115 125 189 290 301 278 266 269 286 294 283 266 242 234 255 275 294 317 321 334 336 337 340 355 342 335 327 318 318 310 297 279 266 257 264 266 214 213 185 180 176
263 54 144 173 178 210 192 245 277 297 317 246 302 277 224 235 225 252 260 273 292 319 328 332 341 340 345 346 334 325 321 320 316 305 282 257 243 255 263 245 203 178 181 176
255 144 187 200 225 231 259 166 231 300 318 310 16 291 264 218 223 232 247 255 300 325 331 336 338 338 345 349 336 337 334 327 327 315 293 247 240 241 228 200 179 175 173 169
96 178 190 222 250 195 36 140 269 292 283 310 158 250 228 200 238 235 229 219 283 328 333 339 337 343 348 351 342 341 342 346 340 349 341 231 240 270 341 192 141 161 166 163
79 38 226 355 112 68 125 224 236 256 267 254 139 248 245 201 196 194 192 187 215 309 324 339 343 348 352 353 355 350 352 356 2 9 17 19 37 43 84 73 71 65 79 75
174 192 152 179 173 173 212 243 274 236 213 290 156 247 266 215 184 178 181 173 180 323 337 344 357 355 358 -0 2 359 357 5 11 19 25 23 31 50 55 67 69 73 72 71
202 211 192 169 241 279 199 288 272 275 298 1 152 239 257 139 172 174 181 173 181 215 355 344 359 3 0 3 10 8 359 3 17 18 27 29 28 44 52 58 71 67 66 78
211 150 123 170 170 268 148 213 31 286 106 271 229 243 236 162 196 193 205 203 205 186 127 351 360 15 7 11 17 18 9 7 16 22 23 33 35 44 52 55 66 65 66 65
145 167 205 122 184 185 270 117 153 228 235 258 234 272 250 208 214 200 210 210 200 170 165 72 18 15 19 14 23 31 34 23 27 25 27 29 32 41 50 50 57 54 56 59
198 256 131 169 208 186 165 209 213 314 240 237 301 261 23 187 186 195 206 201 192 179 168 145 57 23 27 26 35 40 42 37 43 45 32 33 32 40 46 50 54 59 59 61
187 267 194 203 78 344 286 234 197 228 188 232 29 271 87 95 151 185 186 191 186 173 165 158 127 45 40 36 43 49 53 47 57 68 65 57 50 47 45 48 55 64 68 66
184 221 158 210 193 186 227 208 220 236 327 205 180 249 274 186 205 204 189 188 184 179 172 169 158 134 71 56 52 66 64 66 47 61 80 73 64 60 52 46 48 50 54 58
250 255 248 264 72 107 209 207 204 207 202 206 229 251 177 219 227 209 204 193 189 189 182 178 168 152 129 93 77 86 79 76 74 70 73 80 79 73 64 61 56 54 52 59
247 254 294 273 246 218 247 228 209 214 225 221 238 233 250 244 217 220 204 194 193 193 189 187 175 169 150 156 146 123 103 91 93 89 84 83 91 91 84 79 82 82 78 84
190 229 315 277 263 247 255 247 236 226 236 253 262 274 263 256 243 218 204 194 198 199 194 189 178 178 164 163 171 154 134 121 111 100 96 93 90 88 85 88 95 96 97 85
189 170 131 263 336 317 258 231 218 224 225 225 235 242 233 224 222 218 204 201 201 197 191 187 184 183 171 170 169 175 153 141 131 124 121 120 116 110 108 109 104 88 84 85
172 160 151 277 318 254 66 220 226 225 236 222 246 250 245 252 223 224 214 202 203 197 190 183 182 180 172 166 165 162 162 153 148 142 140 135 130 120 115 106 99 104 106 105
194 183 179 227 217 303 294 186 186 191 253 224 237 244 239 221 321 245 223 205 202 195 187 179 180 174 164 166 164 158 177 165 160 157 154 150 142 133 121 119 115 107 113 101
203 227 204 149 235 241 39 113 214 126 273 210 210 227 210 164 232 242 192 197 196 189 179 172 170 166 162 165 161 163 175 174 181 172 159 152 144 146 143 136 129 107 92 113
164 184 213 211 246 272 230 147 158 162 259 356 221 210 174 188 204 79 7 185 185 176 169 167 167 170 169 162 161 171 175 187 169 140 135 136 145 140 138 128 127 130 113 99
172 178 195 204 229 254 142 88 196 171 52 21 244 186 189 196 176 142 150 173 173 165 165 168 171 168 161 163 164 173 184 163 147 149 154 153 140 131 133 133 127 123 131 129
214 202 181 198 217 352 196 215 215 5 45 311 267 201 178 188 197 189 168 165 174 170 165 170 174 165 165 169 174 176 176 150 150 146 155 157 144 146 142 145 145 142 148 148
226 227 232 139 243 241 230 254 259 211 277 326 268 238 189 188 203 201 178 155 159 161 171 172 171 174 174 176 181 178 154 149 151 157 164 162 165 159 154 144 154 154 170 181
176 162 200 251 270 306 252 232 237 224 230 246 231 240 223 204 199 182 186 173 168 169 170 177 182 181 184 175 179 165 155 152 162 161 167 171 170 175 166 180 171 175 168 175
183 176 201 226 182 220 231 201 201 220 221 227 206 212 230 210 202 180 190 180 168 171 168 176 188 185 184 178 178 166 158 166 162 167 174 178 171 176 175 162 152 218 221 193